EHI
0 0 0 0 0 0 0 0 0 0 0 0 0 0 0 0 0 0 0 0 0 0 0 0 0 0 0 0 0 0 0 0 1 1 1 0 0 0 0 0 0 0 0
0 0 0 0 0 0 0 0 0 0 0 0 0 0 0 0 0 0 0 0 0 0 0 0 0 0 0 0 0 0 0 0 0 1 1 0 0 0 0 0 0 0 0
0 0 0 0 0 0 0 0 0 0 0 0 0 0 0 0 0 0 0 0 0 0 0 0 0 0 0 0 0 0 0 0 0 0 0 0 0 0 0 0 0 0 0
0 0 0 0 0 0 0 0 0 0 0 0 0 0 0 0 0 0 0 0 0 0 0 0 0 0 0 0 0 0 0 0 0 0 0 0 0 0 0 0 0 0 0
0 0 0 0 0 0 0 0 0 0 0 0 0 0 0 0 0 0 0 0 0 0 0 0 0 0 0 0 0 0 0 0 0 0 0 0 0 0 0 0 0 0 0
0 0 0 0 0 0 0 0 0 0 0 0 0 0 0 0 0 0 0 0 0 0 0 0 0 0 0 0 0 0 0 0 0 0 0 0 0 0 0 0 0 0 0
0 0 0 0 0 0 0 0 0 0 0 0 0 0 0 0 0 0 0 0 0 0 0 0 0 0 0 0 0 0 0 0 0 0 0 0 0 0 0 0 0 0 0
0 0 0 0 0 0 0 0 0 0 0 0 0 0 0 0 0 0 0 0 0 0 0 0 0 0 0 0 0 0 0 0 0 0 0 0 0 0 0 0 0 0 0
0 0 0 0 0 0 0 0 0 0 0 0 0 0 0 0 0 0 0 0 0 0 0 0 0 0 0 0 0 0 0 0 0 0 0 0 0 0 0 0 0 0 0
0 0 0 0 0 0 0 0 0 0 0 0 0 0 0 0 0 0 0 0 0 0 0 0 0 0 0 0 0 0 0 0 0 0 0 0 0 0 0 0 0 0 0
0 0 0 0 0 0 0 0 0 0 0 0 0 0 0 0 0 0 0 0 0 0 0 0 0 0 0 0 0 0 0 0 0 0 0 0 0 0 0 0 0 0 0
0 0 0 0 0 0 0 0 0 0 0 0 0 0 0 0 0 0 0 0 0 0 0 0 0 0 0 0 0 0 0 0 0 0 0 0 0 0 0 0 0 0 0
0 0 0 0 0 0 0 0 0 0 0 0 0 0 0 0 0 0 0 0 0 0 0 0 0 0 0 0 0 0 0 0 0 0 0 0 0 0 0 0 0 0 0
0 0 0 0 0 0 0 0 0 0 0 0 0 0 0 0 0 0 0 0 0 0 0 0 0 0 0 0 0 0 0 0 0 0 0 0 0 0 0 0 0 0 0
0 0 0 0 0 0 0 0 0 0 0 0 0 0 0 0 0 0 0 0 0 0 0 0 0 0 0 0 0 0 0 0 0 0 0 0 0 0 0 0 0 0 0
0 0 0 0 0 0 0 0 0 0 0 0 0 0 0 0 0 0 0 0 0 0 0 0 0 0 0 0 0 0 0 0 0 0 0 0 0 0 0 0 0 0 0
0 0 0 0 0 0 0 0 0 0 0 0 0 0 0 0 0 0 0 0 0 0 0 0 0 0 0 0 0 0 0 0 0 0 0 0 0 0 0 0 0 0 0
0 0 0 0 0 0 0 0 0 0 0 0 0 0 0 0 0 0 0 0 0 0 0 0 0 0 0 0 0 0 0 0 0 0 0 0 0 0 0 0 0 0 0
0 0 0 0 0 0 0 0 0 0 0 0 0 0 0 0 0 0 0 0 0 0 0 0 0 0 0 0 0 0 0 0 0 0 0 0 0 0 0 0 0 0 0
0 0 0 0 0 0 0 0 0 0 0 0 0 0 0 0 0 0 0 0 0 0 0 0 0 0 0 0 0 0 0 0 0 0 0 0 0 0 0 0 0 0 0
0 0 0 0 0 0 0 0 0 0 0 0 0 0 0 0 0 0 0 0 0 0 0 0 0 0 0 0 0 0 0 0 0 0 0 0 0 0 0 0 0 0 0
0 0 0 0 0 0 0 0 0 0 0 0 0 0 0 0 0 0 0 0 0 0 0 0 0 0 0 0 0 0 0 0 0 0 0 0 0 0 0 0 0 0 0
0 0 0 0 0 0 0 0 0 0 0 0 0 0 0 0 0 0 0 0 0 0 0 0 0 0 0 0 0 0 0 0 0 0 0 0 0 0 0 0 0 0 0
0 0 0 0 0 0 0 0 0 0 0 0 0 0 0 0 0 0 0 0 0 0 0 0 0 0 0 0 0 0 0 0 0 0 0 0 0 0 0 0 0 0 0
0 0 0 0 0 0 0 0 0 0 0 0 0 0 0 0 0 0 0 0 0 0 0 0 0 0 0 0 0 0 0 0 0 0 0 0 0 0 0 0 0 0 0
0 0 0 0 0 0 0 0 0 0 0 0 0 0 0 0 0 0 0 0 0 0 0 0 0 0 0 0 0 0 0 0 0 0 0 0 0 0 0 0 0 0 0
Wind_Speed
1 1 1 1 1 1 1 1 2 2 2 2 2 2 2 2 1 1 1 2 2 2 2 3 4 4 5 5 5 5 5 5 6 5 5 5 6 6 6 7 7 8 8
1 1 1 1 1 1 1 1 2 2 2 1 2 2 2 2 1 1 0 1 1 1 2 4 5 5 5 6 6 6 6 6 6 6 6 5 6 6 7 7 7 7 8
1 1 1 1 1 1 1 1 2 1 1 2 2 2 2 2 2 1 1 0 0 1 2 3 4 5 5 6 6 6 6 6 6 6 6 6 6 7 8 8 8 9 8
2 1 1 1 1 1 1 1 1 1 1 2 2 2 2 2 2 1 1 1 1 1 2 3 4 5 6 6 7 7 7 7 7 7 7 7 7 8 8 8 9 9 9
2 2 1 1 2 1 1 2 1 1 1 1 2 1 2 2 2 1 1 1 1 1 1 2 4 4 5 6 7 7 8 8 8 8 8 8 8 8 8 9 8 9 10
2 2 1 2 2 1 1 1 1 1 1 1 2 2 2 2 1 1 1 1 1 1 1 2 2 2 4 5 6 7 8 9 9 9 9 9 9 8 9 9 9 9 10
2 1 1 1 2 1 2 2 1 1 1 1 1 2 2 2 0 0 1 1 1 2 2 2 1 1 2 5 6 7 8 9 10 10 10 10 10 10 10 10 10 10 10
2 1 1 1 1 1 2 2 1 1 1 1 1 1 2 2 2 1 1 1 1 2 2 2 2 2 2 1 4 7 8 10 11 11 11 10 10 11 11 11 11 11 11
1 1 1 1 1 1 1 1 1 1 1 1 0 0 0 2 2 2 1 1 1 1 2 1 2 2 2 2 2 5 8 10 11 11 12 12 12 12 12 12 12 12 12
0 1 1 1 1 1 1 1 1 1 0 1 1 1 1 1 1 2 2 1 1 2 2 2 2 2 2 1 2 5 8 9 11 12 13 13 13 13 13 13 13 13 13
0 0 1 1 1 1 1 1 1 1 1 1 1 1 1 1 1 1 3 2 2 2 2 2 2 1 1 1 1 4 8 10 12 13 13 14 14 14 13 13 13 13 12
0 1 1 1 1 1 1 1 1 1 1 1 1 1 1 1 1 1 3 3 3 3 3 2 2 2 1 1 3 6 8 10 12 13 14 14 14 14 14 14 13 13 12
1 1 1 1 1 1 1 1 1 1 1 2 2 1 1 2 1 1 2 3 4 3 2 2 2 1 1 1 2 6 7 10 11 13 14 14 14 14 14 14 14 13 13
1 1 1 2 2 2 1 1 1 1 1 2 2 2 1 2 2 2 2 2 3 3 2 3 2 1 1 1 3 7 5 10 11 13 14 14 13 13 14 14 14 13 12
1 1 2 2 2 2 2 2 1 2 2 2 2 2 2 2 2 2 1 2 2 4 4 3 2 2 2 2 4 4 4 9 12 13 13 12 13 13 13 13 13 13 13
1 2 2 2 2 2 2 2 1 2 2 2 2 2 2 2 2 2 2 2 2 3 5 3 3 3 3 4 6 4 5 12 12 13 12 12 13 13 13 13 13 13 13
2 2 2 2 2 2 2 2 2 2 2 2 2 3 3 3 2 2 2 2 2 2 5 5 3 3 3 4 5 4 5 5 6 12 12 12 13 13 12 13 13 13 13
2 3 2 3 3 3 2 3 3 3 3 3 3 3 3 3 3 3 2 2 3 3 4 6 5 3 4 5 5 5 5 5 5 10 12 12 12 12 12 12 12 12 12
2 2 2 3 3 3 3 3 3 3 3 3 3 4 4 3 4 3 3 3 3 3 3 4 5 3 4 4 4 5 5 5 6 8 11 11 11 12 13 12 12 11 12
3 3 3 3 3 3 3 3 3 3 3 3 3 4 4 4 5 4 3 3 3 3 3 4 4 4 4 4 3 4 5 4 6 6 7 8 10 12 12 12 11 11 11
3 3 3 3 3 2 3 3 3 3 3 3 3 4 4 5 6 5 4 3 3 3 3 3 4 4 4 3 3 3 5 6 6 4 4 5 5 4 5 8 9 10 11
3 3 3 3 3 3 4 6 4 3 3 3 4 4 4 5 7 8 9 8 6 5 4 4 4 5 6 4 4 4 4 5 6 3 4 6 4 5 4 4 8 11 12
3 3 3 3 4 4 6 6 6 3 3 3 4 4 4 5 6 4 6 8 8 10 10 6 5 6 5 4 4 5 5 5 6 5 5 7 4 5 4 6 12 13 12
3 3 4 4 4 4 6 6 6 4 3 4 4 5 5 4 4 4 3 3 4 5 7 5 5 5 5 4 4 5 6 6 6 5 4 5 5 5 5 5 10 11 10
3 3 3 4 4 4 6 6 5 2 3 4 4 4 5 4 7 7 4 4 4 4 7 8 8 7 9 9 7 3 4 4 6 4 2 3 3 5 5 4 5 8 10
4 3 4 4 4 4 5 6 5 2 3 4 4 4 7 7 8 8 4 4 5 5 3 4 5 6 5 6 8 4 3 4 4 4 2 2 3 4 5 3 3 4 6
Wind_Direction
49 38 43 44 21 5 360 321 312 327 325 327 334 346 341 341 1 3 55 72 54 17 342 326 322 320 318 317 319 317 315 311 305 306 307 305 302 294 288 279 275 267 265
49 33 25 27 9 350 340 314 315 316 315 336 337 334 326 335 355 3 68 73 53 21 352 329 324 319 317 315 315 316 319 319 311 305 303 302 300 297 293 283 276 274 271
39 30 28 22 346 328 333 334 328 332 343 348 340 341 338 340 336 338 24 92 73 39 6 348 347 339 332 325 322 322 319 321 321 315 307 303 302 299 295 290 278 273 274
21 19 27 6 331 347 349 331 335 348 354 351 336 328 326 322 321 334 6 33 44 47 22 13 0 350 344 336 332 329 329 324 324 320 316 312 307 301 298 298 291 280 277
21 27 3 347 345 351 350 328 0 352 344 343 318 312 314 311 310 336 5 29 42 50 40 16 13 2 351 344 339 336 334 330 326 323 319 314 310 306 302 298 300 294 283
19 19 354 355 360 355 346 337 337 345 354 325 320 325 301 286 300 347 353 20 32 37 47 28 17 7 359 356 351 345 341 337 330 325 321 316 308 306 304 299 294 294 295
3 11 19 6 6 354 332 335 349 360 1 2 0 327 300 273 165 44 24 30 24 27 33 20 19 10 355 1 355 350 343 339 335 329 323 319 315 308 303 298 296 294 294
359 3 13 2 358 352 348 351 357 360 347 21 21 325 325 323 349 349 2 22 34 21 8 3 17 12 358 356 357 1 349 340 333 329 326 322 318 315 308 306 303 297 295
15 1 351 358 351 353 334 335 348 359 314 299 34 117 205 277 313 293 293 356 19 358 338 335 355 0 355 3 355 358 355 344 335 329 326 323 320 317 312 309 306 302 298
25 359 338 339 336 340 336 325 5 331 257 268 297 278 214 197 251 300 303 317 331 327 323 326 327 323 334 349 349 349 349 341 333 329 325 322 321 318 316 315 310 305 302
295 326 325 342 342 340 336 333 322 323 250 240 253 283 277 275 228 236 276 291 300 279 290 297 290 295 310 332 319 348 346 339 332 328 324 323 322 321 319 319 315 311 306
269 265 252 258 277 284 288 284 285 282 283 258 254 257 243 245 248 244 266 285 287 278 274 266 273 277 287 322 326 341 335 330 328 324 322 321 323 322 320 319 318 320 318
231 252 247 228 231 240 245 261 262 271 273 260 245 248 250 253 248 260 266 282 289 289 273 269 262 260 312 333 315 326 319 320 320 320 318 319 322 321 318 315 314 316 317
223 220 233 236 227 232 236 232 224 237 245 253 266 258 254 256 248 249 248 268 291 289 276 271 279 259 312 308 301 314 305 312 313 316 316 316 318 317 316 315 312 314 315
221 215 222 241 231 224 224 222 222 233 231 238 248 255 258 267 257 250 244 226 239 279 284 272 293 297 303 298 300 301 294 302 307 308 309 312 311 311 310 311 309 309 308
222 226 234 238 237 224 223 219 229 239 237 248 243 248 257 261 260 245 233 242 238 251 273 283 286 290 303 304 302 300 294 306 305 304 304 308 308 307 307 307 305 306 304
223 226 231 234 232 228 226 223 226 227 236 249 249 245 253 251 256 249 243 244 252 252 270 287 291 296 298 298 301 295 293 293 293 301 303 306 307 305 305 306 306 306 305
229 228 230 236 230 227 225 225 231 231 232 241 245 241 251 254 253 250 245 248 250 252 256 277 289 291 285 287 292 296 302 303 296 300 304 305 305 307 308 308 306 305 305
232 232 231 235 230 223 226 232 229 231 234 240 242 239 245 241 248 245 245 245 252 263 257 267 282 290 289 293 300 300 299 299 301 302 305 302 304 307 308 307 305 305 305
231 232 234 237 232 223 226 233 234 237 243 247 247 245 245 235 237 238 245 247 255 261 260 265 274 285 291 294 299 304 309 309 305 304 299 303 305 306 305 305 304 306 306
238 230 237 243 234 224 227 225 226 239 243 253 255 251 249 248 246 246 252 246 249 255 259 266 272 285 287 298 299 302 304 308 302 293 307 302 301 297 297 298 299 300 304
240 235 236 236 235 241 248 248 247 241 244 248 258 261 258 249 247 254 259 259 253 251 253 257 269 273 282 287 295 298 303 310 305 308 317 301 294 289 286 280 294 302 303
241 241 243 239 236 236 247 254 258 254 247 250 253 260 266 257 246 237 253 262 263 262 259 257 256 265 278 284 290 292 291 289 284 291 305 293 293 289 289 296 303 300 301
238 240 242 242 238 240 246 253 260 256 251 254 256 256 256 256 245 243 244 254 257 264 267 264 254 263 270 274 270 275 281 289 283 279 281 285 294 293 299 295 296 297 303
247 246 246 241 239 244 244 249 253 246 255 263 265 264 260 250 258 255 242 247 264 272 278 275 274 277 284 290 290 291 290 294 295 291 275 271 296 306 295 286 293 305 314
247 250 255 246 239 239 244 248 246 237 252 262 264 261 262 264 266 258 236 230 255 266 274 287 282 283 281 283 285 270 264 277 290 291 279 301 304 326 307 288 300 312 312